Weather History for Phuket, Thailand

Change the Weather History Date:

Saturday, March 22, 2014

  Actual Average Record
Temperature  
Mean Temperature 84 °F -  
Max Temperature 93 °F 91 °F 96 °F (1998)
Min Temperature 74 °F 77 °F 73 °F (2011)
Cooling Degree Days 18    
Growing Degree Days 34 (Base 50)    
Moisture  
Dew Point 73 °F    
Average Humidity 70    
Maximum Humidity 94    
Minimum Humidity 41    
Precipitation  
Precipitation 0.12 in 0.17 in - ()
Sea Level Pressure  
Sea Level Pressure 29.80 in    
Wind  
Wind Speed 7 mph ()    
Max Wind Speed 114 mph    
Max Gust Speed -    
Visibility 4.4 miles    
Events Rain , Thunderstorm    
Averages and records for this station are not official NWS values.
T = Trace of Precipitation, MM = Missing Value Source: Averaged Metar Reports

Daily Weather History Graph

Daily Weather History Graph

Search for Another Location

Airport:

Trip Planner

Search our weather history database for the weather conditions in past years. The results will help you decide how hot, cold, wet, or windy it might be!

Date:

Astronomy

Mar. 22, 2014 Rise Set
Actual Time 6:30 AM ICT 6:37 PM ICT
Civil Twilight 6:09 AM ICT 6:58 PM ICT
Nautical Twilight 5:45 AM ICT 7:22 PM ICT
Astronomical Twilight 5:20 AM ICT 7:46 PM ICT
Moon 11:30 PM ICT (3/22) 10:39 AM ICT (3/22)
Length of Visible Light 12h 49m
Length of Day
12h 07m
Waning Gibbous, 70% of the Moon is Illuminated
Mar 22
Waning Gibbous
Mar 24
Last Quarter
Mar 31
New
Apr 7
First Quarter
Apr 15
Full

Hourly Weather History & Observations

Time (ICT) Temp. Heat Index Dew Point Humidity Pressure Visibility Wind Dir Wind Speed Gust Speed Precip Events Conditions
12:00 AM 78.8 °F - 73.4 °F 83% 29.80 in 6.2 mi Calm Calm - N/A   Scattered Clouds
12:30 AM 78.8 °F - 73.4 °F 83% 29.80 in 6.2 mi WNW 9.2 mph - N/A   Scattered Clouds
1:00 AM 84 °F - 75 °F 68% 29.76 in 6 mi Calm Calm - -   Scattered Clouds
1:00 AM 78.8 °F - 73.4 °F 83% 29.80 in 6.2 mi Calm Calm - N/A   Scattered Clouds
1:30 AM 78.8 °F - 73.4 °F 83% 29.80 in 6.2 mi Calm Calm - N/A   Scattered Clouds
3:00 AM 77.0 °F - 73.4 °F 89% - 6.2 mi Calm Calm - N/A   Scattered Clouds
3:30 AM 77.0 °F - 73.4 °F 89% 29.80 in 6.2 mi Calm Calm - N/A   Scattered Clouds
4:00 AM 80 °F - 74 °F 79% 29.74 in 6 mi Calm Calm - -   Scattered Clouds
4:00 AM 77.0 °F - 73.4 °F 89% 29.77 in 6.2 mi Calm Calm - N/A   Scattered Clouds
6:00 AM 77.0 °F - 73.4 °F 89% 29.80 in 6.2 mi North 113.9 mph - N/A   Scattered Clouds
6:30 AM 77.0 °F - 73.4 °F 89% 29.80 in 3.1 mi Calm Calm - N/A   Mostly Cloudy
7:00 AM 78 °F - 75 °F 88% 29.79 in 3 mi Calm Calm - -   Mist
7:00 AM 77.0 °F - 73.4 °F 89% 29.83 in 3.1 mi Calm Calm - N/A   Mostly Cloudy
7:30 AM 77.0 °F - 75.2 °F 94% 29.83 in 3.1 mi Calm Calm - N/A   Mostly Cloudy
8:00 AM 80.6 °F 86.2 °F 75.2 °F 84% 29.86 in 3.7 mi East 5.8 mph - N/A   Mostly Cloudy
8:30 AM 82.4 °F 89.5 °F 75.2 °F 79% 29.86 in 3.7 mi East 4.6 mph - N/A   Mostly Cloudy
9:00 AM 84.2 °F 90.9 °F 73.4 °F 70% 29.86 in 3.7 mi East 8.1 mph - N/A   Mostly Cloudy
9:30 AM 86.0 °F 91.8 °F 71.6 °F 62% 29.86 in 3.7 mi East 9.2 mph - N/A   Mostly Cloudy
10:00 AM 88 °F - 73 °F 54% 29.83 in 4 mi SE 11.5 mph - -   Haze
10:00 AM 86.0 °F 90.4 °F 69.8 °F 58% 29.86 in 3.7 mi East 9.2 mph - N/A   Mostly Cloudy
10:30 AM 87.8 °F 92.6 °F 69.8 °F 55% 29.86 in 3.7 mi East 11.5 mph - N/A   Mostly Cloudy
11:00 AM 87.8 °F 92.6 °F 69.8 °F 55% 29.86 in 4.3 mi East 10.4 mph - N/A   Mostly Cloudy
11:30 AM 87.8 °F 92.6 °F 69.8 °F 55% 29.86 in 4.3 mi East 10.4 mph - N/A   Mostly Cloudy
12:00 PM 89.6 °F 94.7 °F 69.8 °F 52% 29.83 in 4.3 mi ENE 10.4 mph - N/A   Mostly Cloudy
12:30 PM 89.6 °F 94.7 °F 69.8 °F 52% 29.83 in 4.3 mi ENE 11.5 mph - N/A   Mostly Cloudy
1:00 PM 93 °F - 72 °F 41% 29.79 in 4 mi SE 10.4 mph - -   Haze
1:00 PM 91.4 °F 95.4 °F 68.0 °F 46% 29.80 in 4.3 mi ENE 8.1 mph - N/A   Mostly Cloudy
1:30 PM 91.4 °F 98.4 °F 71.6 °F 52% 29.77 in 4.3 mi Variable 3.5 mph - N/A   Mostly Cloudy
2:00 PM 91.4 °F 93.2 °F 64.4 °F 41% 29.77 in 4.3 mi NE 10.4 mph - N/A   Mostly Cloudy
2:30 PM 91.4 °F 98.4 °F 71.6 °F 52% 29.77 in 4.3 mi Variable 5.8 mph - N/A   Mostly Cloudy
3:00 PM 91.4 °F 98.4 °F 71.6 °F 52% 29.74 in 4.3 mi West 12.7 mph - N/A   Mostly Cloudy
3:30 PM 89.6 °F 98.2 °F 73.4 °F 59% 29.74 in 4.3 mi West 12.7 mph - N/A   Mostly Cloudy
4:00 PM 90 °F - 76 °F 57% 29.71 in 4 mi WSW 11.5 mph - -   Haze
4:00 PM 89.6 °F 98.2 °F 73.4 °F 59% 29.74 in 4.3 mi West 11.5 mph - N/A   Mostly Cloudy
4:30 PM 87.8 °F 95.6 °F 73.4 °F 62% 29.74 in 4.3 mi West 13.8 mph - N/A   Mostly Cloudy
5:00 PM 87.8 °F 97.6 °F 75.2 °F 66% 29.74 in 4.3 mi West 11.5 mph - N/A   Mostly Cloudy
5:30 PM 87.8 °F 95.6 °F 73.4 °F 62% 29.74 in 4.3 mi West 10.4 mph - N/A   Mostly Cloudy
6:00 PM 86.0 °F 93.4 °F 73.4 °F 66% 29.74 in 3.7 mi West 11.5 mph - N/A   Mostly Cloudy
6:30 PM 86.0 °F 93.4 °F 73.4 °F 66% 29.74 in 3.7 mi West 10.4 mph - N/A   Mostly Cloudy
7:00 PM 86 °F - 76 °F 65% 29.72 in 4 mi West 6.9 mph - -   Mist
7:00 PM 84.2 °F 90.9 °F 73.4 °F 70% 29.74 in 3.1 mi West 9.2 mph - N/A   Mostly Cloudy
7:30 PM 84.2 °F 90.9 °F 73.4 °F 70% 29.77 in 3.1 mi West 4.6 mph - N/A   Mostly Cloudy
8:00 PM 84.2 °F 90.9 °F 73.4 °F 70% 29.80 in 3.1 mi NW 4.6 mph - N/A   Mostly Cloudy
8:30 PM 84.2 °F 89.6 °F 71.6 °F 66% 29.80 in 4.3 mi WNW 4.6 mph - N/A   Mostly Cloudy
9:00 PM 84.2 °F 89.6 °F 71.6 °F 66% 29.83 in 4.3 mi NNW 4.6 mph - N/A   Mostly Cloudy
9:30 PM 84.2 °F 89.6 °F 71.6 °F 66% 29.83 in 4.3 mi Variable 5.8 mph - N/A Thunderstorm Thunderstorm
10:00 PM 81 °F - 77 °F 83% 29.81 in 4 mi Calm Calm - - Rain , Thunderstorm Thunderstorms and Rain
10:00 PM 78.8 °F - 73.4 °F 83% 29.86 in 4.3 mi Calm Calm - N/A Rain Light Rain
10:30 PM 78.8 °F - 75.2 °F 89% 29.86 in 4.3 mi Calm Calm - N/A   Mostly Cloudy
11:00 PM 78.8 °F - 75.2 °F 89% 29.89 in 4.3 mi Calm Calm - N/A   Mostly Cloudy
11:30 PM 77.0 °F - 73.4 °F 89% 29.89 in 4.3 mi Calm Calm - N/A   Mostly Cloudy